TimeCST,TemperatureF,Dew PointF,Humidity,Sea Level PressureIn,VisibilityMPH,Wind Direction,Wind SpeedMPH,Gust SpeedMPH,PrecipitationIn,Events,Conditions,WindDirDegrees,DateUTC
12:54 AM,39.0,24.1,55,30.06,10.0,SSE,6.9,-,N/A,,Mostly Cloudy,150,2013-03-04 06:54:00
1:54 AM,39.9,24.1,53,30.04,10.0,SSE,8.1,-,N/A,,Overcast,150,2013-03-04 07:54:00
2:54 AM,41.0,21.9,47,30.01,10.0,SSE,11.5,-,N/A,,Mostly Cloudy,160,2013-03-04 08:54:00
3:54 AM,41.0,21.9,47,30.01,10.0,SSE,8.1,-,N/A,,Overcast,150,2013-03-04 09:54:00
4:54 AM,41.0,21.9,47,29.99,10.0,SSE,8.1,-,N/A,,Overcast,150,2013-03-04 10:54:00
5:54 AM,41.0,23.0,49,29.97,10.0,SSE,12.7,19.6,N/A,,Mostly Cloudy,160,2013-03-04 11:54:00
6:54 AM,41.0,24.1,51,29.98,10.0,SSE,11.5,-,N/A,,Mostly Cloudy,160,2013-03-04 12:54:00
7:54 AM,44.1,25.0,47,29.99,10.0,SSE,10.4,-,N/A,,Mostly Cloudy,150,2013-03-04 13:54:00
8:54 AM,50.0,28.0,43,29.98,10.0,SSE,13.8,-,N/A,,Mostly Cloudy,160,2013-03-04 14:54:00
9:54 AM,55.0,30.9,40,29.94,10.0,South,20.7,26.5,N/A,,Mostly Cloudy,180,2013-03-04 15:54:00
10:54 AM,60.1,30.9,33,29.90,10.0,South,21.9,26.5,N/A,,Mostly Cloudy,170,2013-03-04 16:54:00
11:54 AM,64.9,30.9,28,29.86,10.0,South,20.7,26.5,N/A,,Mostly Cloudy,170,2013-03-04 17:54:00
12:54 PM,68.0,28.9,23,29.82,10.0,SSW,26.5,38.0,N/A,,Overcast,210,2013-03-04 18:54:00
1:54 PM,66.0,30.9,27,29.80,10.0,South,20.7,28.8,N/A,,Overcast,190,2013-03-04 19:54:00
2:54 PM,64.9,34.0,32,29.78,10.0,South,13.8,24.2,N/A,,Overcast,190,2013-03-04 20:54:00
3:54 PM,64.9,35.1,33,29.78,10.0,SSW,15.0,26.5,N/A,,Overcast,200,2013-03-04 21:54:00
4:54 PM,64.9,37.0,36,29.78,10.0,SSW,12.7,20.7,N/A,,Overcast,200,2013-03-04 22:54:00
5:54 PM,64.0,37.9,38,29.77,10.0,South,11.5,-,N/A,,Overcast,180,2013-03-04 23:54:00
6:54 PM,64.9,37.9,37,29.77,10.0,SSE,12.7,-,N/A,,Overcast,160,2013-03-05 00:54:00
7:54 PM,64.0,37.9,38,29.78,10.0,South,8.1,-,N/A,,Overcast,170,2013-03-05 01:54:00
8:54 PM,63.0,39.9,43,29.78,10.0,South,10.4,-,N/A,,Overcast,170,2013-03-05 02:54:00
9:54 PM,62.1,44.1,52,29.78,10.0,South,12.7,-,N/A,,Mostly Cloudy,180,2013-03-05 03:54:00
10:54 PM,63.0,46.9,56,29.77,10.0,South,19.6,31.1,N/A,,Scattered Clouds,190,2013-03-05 04:54:00
11:54 PM,63.0,48.9,60,29.76,10.0,South,18.4,29.9,N/A,,Scattered Clouds,190,2013-03-05 05:54:00